Date,TemperatureHighF,TemperatureAvgF,TemperatureLowF,DewpointHighF,DewpointAvgF,DewpointLowF,HumidityHigh,HumidityAvg,HumidityLow,PressureMaxIn,PressureMinIn,WindSpeedMaxMPH,WindSpeedAvgMPH,GustSpeedMaxMPH,PrecipitationSumIn
2013-3-1,25.4,24.0,22.4,20.2,18.7,15.7,85,80,74,30.22,30.08,16,10,23,0.00
2013-3-2,28.3,20.3,8.5,15.9,12.2,5.0,85,71,55,30.21,30.16,10,6,14,0.00
2013-3-3,29.9,16.1,3.5,12.0,4.9,-1.2,90,65,28,30.16,30.08,7,3,11,0.00
2013-3-4,33.7,21.8,5.6,23.3,15.0,1.6,86,75,58,30.14,30.04,10,5,13,0.00
2013-3-5,31.2,29.0,25.8,28.9,26.0,23.1,100,89,75,30.05,29.88,15,9,21,0.00
2013-3-6,36.0,30.0,25.4,27.2,24.6,22.4,89,81,67,30.30,30.03,14,8,21,0.00
2013-3-7,39.6,28.5,16.4,23.6,19.9,14.5,92,71,50,30.43,30.29,8,4,11,0.00
2013-3-8,39.1,25.9,11.0,28.6,21.0,9.4,94,83,64,30.47,30.30,8,3,12,0.00
2013-3-9,42.5,33.4,22.4,34.1,28.9,20.7,95,84,65,30.30,29.84,9,3,13,0.06
2013-3-10,46.3,38.3,34.6,46.1,37.9,32.4,100,98,91,29.84,29.63,12,3,20,0.48
2013-3-11,38.0,34.6,30.8,38.0,34.2,28.0,100,98,89,29.74,29.53,11,4,16,0.04
2013-3-12,35.9,29.7,24.0,28.5,24.3,19.2,94,81,56,29.99,29.75,18,5,22,0.01
2013-3-13,31.7,24.3,18.6,21.0,10.8,3.5,89,58,31,30.30,29.98,17,9,24,0.00
2013-3-14,40.9,27.3,15.2,25.6,17.4,8.1,92,67,37,30.30,30.06,10,4,13,0.00
2013-3-15,42.7,32.1,25.8,33.3,28.7,24.0,96,88,67,30.06,29.81,10,3,17,0.04
2013-3-16,35.1,28.5,25.6,28.4,22.8,17.0,96,80,55,30.13,29.79,9,2,12,0.00
2013-3-17,32.1,26.0,18.8,22.8,15.8,9.2,80,65,52,30.25,30.03,11,8,15,0.00
2013-3-18,39.3,29.6,18.4,32.9,25.3,11.4,93,84,72,30.03,29.59,26,10,33,0.12
2013-3-19,29.9,20.8,12.1,15.7,10.0,6.3,80,64,44,30.02,29.72,25,19,34,0.15
2013-3-20,23.4,15.8,9.9,9.3,2.7,-2.0,64,56,43,30.06,30.00,16,10,24,0.00
2013-3-21,30.1,18.9,8.9,13.3,6.9,0.8,74,59,44,30.04,30.00,12,7,19,0.00
2013-3-22,36.6,24.3,13.4,16.2,11.3,7.6,79,60,34,30.09,30.01,11,4,14,0.00
2013-3-23,40.4,27.8,17.1,25.5,19.0,13.1,87,71,39,30.14,30.05,9,3,14,0.00
2013-3-24,37.5,31.9,29.2,28.2,24.8,20.7,86,75,64,30.06,29.75,18,10,25,0.00
2013-3-25,38.0,31.5,26.1,28.4,24.0,19.3,87,74,58,30.08,29.77,17,10,28,0.00
2013-3-26,42.7,35.0,29.7,27.7,24.5,22.9,79,66,54,30.24,30.08,12,7,17,0.00
2013-3-27,44.0,36.0,27.4,24.1,19.7,14.0,73,53,32,30.31,30.24,12,6,16,0.00
2013-3-28,46.8,34.4,22.5,23.9,18.8,14.3,85,57,28,30.33,30.28,10,4,13,0.00
2013-3-29,49.4,34.8,22.0,28.6,20.6,14.0,90,61,24,30.32,30.25,9,3,12,0.00
2013-3-30,58.2,40.2,23.6,40.0,29.4,19.9,91,68,39,30.25,29.83,13,4,17,0.00
2013-3-31,53.7,41.6,31.5,40.9,34.4,16.8,96,77,46,29.89,29.70,20,10,27,0.02